Valdosta, GA

12:14 AM EST on February 10, 2016 (GMT -0500)
Valdosta Regional

Weather History for KVLD - June, 2013

Change the Weather History Date:

Monday, June 17, 2013

  Actual Average Record
Temperature  
Mean Temperature 86 °F 80 °F  
Max Temperature 96 °F 90 °F 101 °F (1998)
Min Temperature 75 °F 69 °F 62 °F (2012)
Cooling Degree Days 20 15  
Month to date cooling degree days 232  
Year to date cooling degree days 644  
Since 1 June cooling degree days 232  
Growing Degree Days 36 (Base 50)    
Moisture  
Dew Point 71 °F    
Average Humidity 68    
Maximum Humidity 89    
Minimum Humidity 40    
Precipitation  
Precipitation 0.00 in 0.22 in 1.92 in (2000)
Month to date precipitation T 3.64  
Year to date precipitation 14.54 22.64  
Sea Level Pressure  
Sea Level Pressure 30.06 in    
Wind  
Wind Speed 2 mph (South)    
Max Wind Speed 7 mph    
Max Gust Speed -    
Visibility 9 miles    
Events      
T = Trace of Precipitation, MM = Missing Value Source: NWS Daily Summary

Daily Weather History Graph

Daily Weather History Graph

Search for Another Location

Airport or City:

Trip Planner

Search our weather history database for the weather conditions in past years. The results will help you decide how hot, cold, wet, or windy it might be!

Date:

Astronomy

Jun. 17, 2013 Rise Set
Actual Time 6:29 AM EDT 8:38 PM EDT
Civil Twilight 6:02 AM EDT 9:06 PM EDT
Nautical Twilight 5:28 AM EDT 9:39 PM EDT
Astronomical Twilight 4:52 AM EDT 10:16 PM EDT
Moon 2:35 PM EDT (6/17) 1:43 AM EDT (6/17)
Length of Visible Light 15h 03m
Length of Day
14h 08m
First Quarter, 60% of the Moon is Illuminated
Jun 17
First Quarter
Jun 23
Full
Jun 30
Last Quarter
Jul 8
New
Jul 15
First Quarter

Hourly Weather History & Observations

Time (EDT) Temp. Heat Index Dew Point Humidity Pressure Visibility Wind Dir Wind Speed Gust Speed Precip Events Conditions
12:53 AM 80.1 °F 83.8 °F 72.0 °F 76% 30.09 in 10.0 mi South 6.9 mph - N/A   Clear
1:53 AM 78.1 °F - 72.0 °F 81% 30.09 in 10.0 mi Calm Calm - N/A   Partly Cloudy
2:53 AM 77.0 °F - 72.0 °F 84% 30.08 in 10.0 mi Calm Calm - N/A   Clear
3:53 AM 75.9 °F - 71.1 °F 85% 30.08 in 9.0 mi Calm Calm - N/A   Mostly Cloudy
4:53 AM 75.0 °F - 70.0 °F 84% 30.07 in 6.0 mi Calm Calm - N/A   Haze
5:27 AM 75.2 °F - 71.6 °F 89% 30.06 in 7.0 mi Calm Calm - N/A   Overcast
5:49 AM 77.0 °F - 71.6 °F 83% 30.05 in 9.0 mi Calm Calm - N/A   Overcast
5:53 AM 77.0 °F - 72.0 °F 84% 30.07 in 10.0 mi Calm Calm - N/A   Overcast
6:53 AM 75.9 °F - 72.0 °F 87% 30.09 in 7.0 mi Calm Calm - N/A   Overcast
7:31 AM 77.0 °F - 71.6 °F 83% 30.07 in 8.0 mi SE 3.5 mph - N/A   Mostly Cloudy
7:40 AM 77.0 °F - 71.6 °F 83% 30.07 in 8.0 mi Calm Calm - N/A   Mostly Cloudy
7:53 AM 78.1 °F - 73.0 °F 84% 30.09 in 8.0 mi Calm Calm - N/A   Mostly Cloudy
8:00 AM 78.8 °F - 71.6 °F 78% 30.07 in 9.0 mi SE 3.5 mph - N/A   Overcast
8:53 AM 80.1 °F 84.2 °F 73.0 °F 79% 30.10 in 10.0 mi South 4.6 mph - N/A   Overcast
9:51 AM 82.4 °F 88.2 °F 73.4 °F 74% 30.08 in 10.0 mi South 3.5 mph - N/A   Mostly Cloudy
9:53 AM 82.9 °F 88.8 °F 73.0 °F 72% 30.09 in 10.0 mi South 3.5 mph - N/A   Mostly Cloudy
10:43 AM 86.0 °F 93.4 °F 73.4 °F 66% 30.07 in 10.0 mi Calm Calm - N/A   Mostly Cloudy
10:53 AM 87.1 °F 95.4 °F 73.9 °F 65% 30.09 in 10.0 mi Calm Calm - N/A   Mostly Cloudy
11:11 AM 87.8 °F 95.6 °F 73.4 °F 62% 30.07 in 10.0 mi SSW 4.6 mph - N/A   Scattered Clouds
11:26 AM 87.8 °F 95.6 °F 73.4 °F 62% 30.07 in 10.0 mi SW 3.5 mph - N/A   Mostly Cloudy
11:33 AM 87.8 °F 95.6 °F 73.4 °F 62% 30.06 in 10.0 mi Calm Calm - N/A   Mostly Cloudy
11:53 AM 90.0 °F 96.4 °F 71.1 °F 54% 30.08 in 10.0 mi Calm Calm - N/A   Scattered Clouds
12:53 PM 91.9 °F 98.4 °F 71.1 °F 50% 30.05 in 10.0 mi South 5.8 mph - N/A   Scattered Clouds
1:53 PM 93.9 °F 99.1 °F 69.1 °F 44% 30.04 in 10.0 mi Variable 4.6 mph - N/A   Scattered Clouds
2:53 PM 93.9 °F 97.5 °F 66.9 °F 41% 30.03 in 10.0 mi Calm Calm - N/A   Scattered Clouds
3:53 PM 93.9 °F 100.3 °F 70.0 °F 46% 30.01 in 10.0 mi Variable 4.6 mph - N/A   Mostly Cloudy
4:53 PM 96.1 °F 101.0 °F 68.0 °F 40% 29.99 in 10.0 mi Variable 3.5 mph - N/A   Partly Cloudy
5:53 PM 93.9 °F 97.0 °F 66.0 °F 40% 29.98 in 10.0 mi Variable 6.9 mph - N/A   Clear
6:53 PM 91.0 °F 92.6 °F 64.0 °F 41% 30.00 in 10.0 mi SSW 6.9 mph - N/A   Clear
7:53 PM 87.1 °F 89.2 °F 66.0 °F 49% 30.01 in 10.0 mi SSW 3.5 mph - N/A   Clear
8:53 PM 82.0 °F 84.5 °F 66.9 °F 60% 30.02 in 10.0 mi SSW 3.5 mph - N/A   Clear
9:53 PM 81.0 °F 84.1 °F 69.1 °F 67% 30.04 in 10.0 mi Calm Calm - N/A   Clear
10:53 PM 79.0 °F - 69.1 °F 72% 30.05 in 10.0 mi South 3.5 mph - N/A   Clear
11:53 PM 78.1 °F - 70.0 °F 76% 30.05 in 10.0 mi South 4.6 mph - N/A   Clear